Weather in Dolgovo

Russia / Penza Oblast     53°23′47″N   42°19′45″E
temp.,
°C
wind,
m/s
gust,
m/s
humid.,
%
clouds,
%
prec.,
mm/h
press.,
hPa
HPBL,
m
27 february, sat
sat2700:00+1w6149083 0.0 1003644
03:00+1w7139191 0.1 1003812
06:00+1w61397100 0.2 1001786
09:000w71397100 0.5 10011001
12:00−2nw61094100 1.1 1002855
15:00−8nnw6118598 1.3 1005798
18:00−9nnw51089100 0.1 1008704
21:00−11nnw41092100 0.1 1012590
28 february, sun
sun2800:00−12nnw3995100 0.0 1012404
03:00−14nw369797 0.1 1014193
06:00−15nw259775 0.0 1015137
09:00−13nw359370 0.0 1015265
12:00−9nw348794 0.0 1015506
15:00−7nw358897 0.1 1016530
18:00−9nnw2494100 0.1 1016115
21:00−10nnw2296100 0.1 101927
1 march, mon
mon100:00−12nne129796 0.1 102021
03:00−13nnw129768 0.1 102220
06:00−14n119711 0.0 102320
09:00−11nnw129444 0.0 1025130
12:00−6wnw138388 0.0 1025451
15:00−5w348793 0.0 1024468
18:00−8wsw349775 0.0 102382
21:00−7wsw3109684 0.1 1022310
2 march, tue
tue200:00−4wsw41095100 0.2 1019468
03:00−3wsw61395100 0.8 1015529
06:00−1wsw61396100 1.8 1011729
09:000w61198100 3.1 1009786
12:000nw61196100 0.8 1008910
15:00+1nw61089100 1.0 1008893
18:00−2nw4128984 0.1 1009541
21:00−2wnw4129274 0.1 1010624
3 march, wed
wed300:00−2nw61295100 0.6 1010769
03:00−3nw5119599 0.9 1010630
06:00−4nw41194100 0.3 1012603
09:00−3nw51093100 0.5 1013764
12:00−2nw599096 0.1 1014821
15:00−2nw698699 0.5 1015997
18:00−3nw4109199 0.1 1015732
21:00−3wnw4109399 0.2 1017669